Weather History for Beckley, WV

Change the Weather History Date:

Sunday, October 2, 2011

  Actual Average Record
Temperature  
Mean Temperature 45 °F 57 °F  
Max Temperature 51 °F 67 °F 86 °F (1941)
Min Temperature 38 °F 47 °F 22 °F (1930)
Degree Days  
Heating Degree Days 20 8  
Month to date heating degree days 44 16  
Since 1 July heating degree days 121 150  
Cooling Degree Days 0 1  
Month to date cooling degree days 0 2  
Year to date cooling degree days 865 552  
Moisture  
Dew Point 35 °F    
Average Humidity 73    
Maximum Humidity 100    
Minimum Humidity 46    
Precipitation  
Precipitation 0.04 in 0.08 in 1.70 in (1911)
Month to date precipitation 0.53 0.16  
Year to date precipitation 32.15 32.83  
Snow  
Snow 0.00 in - - ()
Month to date snowfall 0.0  
Since 1 September snowfall 0.0  
Snow Depth 0.00 in    
Sea Level Pressure  
Sea Level Pressure 30.04 in    
Wind  
Wind Speed 11 mph (NW)    
Max Wind Speed 22 mph    
Max Gust Speed 30 mph    
Visibility 9 miles    
Events Rain    
T = Trace of Precipitation, MM = Missing Value Source: NWS Daily Summary

Daily Weather History Graph

Daily Weather History Graph

Search for Another Location

Airport:

Trip Planner

Search our weather history database for the weather conditions in past years. The results will help you decide how hot, cold, wet, or windy it might be!

Date:

Astronomy

Oct. 02, 2011 Rise Set
Actual Time 7:20 AM EDT 7:06 PM EDT
Civil Twilight 6:54 AM EDT 7:32 PM EDT
Nautical Twilight 6:24 AM EDT 8:02 PM EDT
Astronomical Twilight 5:53 AM EDT 8:33 PM EDT
Moon 1:19 PM EDT (10/2) 11:09 PM EDT (10/2)
Length of Visible Light 12h 38m
Length of Day
11h 45m
Waxing Crescent, 34% of the Moon is Illuminated
Oct 2
Waxing Crescent
Oct 3
First Quarter
Oct 11
Full
Oct 19
Last Quarter
Oct 26
New

Hourly Weather History & Observations

Time (EDT) Temp. Windchill Dew Point Humidity Pressure Visibility Wind Dir Wind Speed Gust Speed Precip Events Conditions
12:43 AM 41.0 °F 33.5 °F 39.2 °F 93% 30.01 in 4.0 mi NW 13.8 mph 20.7 mph 0.01 in Rain Light Rain
12:51 AM 41.0 °F 33.5 °F 39.9 °F 96% 30.05 in 4.0 mi NW 13.8 mph - 0.01 in Rain Light Rain
1:22 AM 41.0 °F 35.8 °F 39.2 °F 93% 30.01 in 3.0 mi NW 8.1 mph - 0.01 in Rain Light Rain
1:51 AM 39.9 °F 33.4 °F 39.0 °F 97% 30.04 in 4.0 mi NW 10.4 mph - 0.03 in Rain Light Rain
2:00 AM 39.2 °F 32.0 °F 37.4 °F 93% 30.00 in 6.0 mi NW 11.5 mph - 0.00 in Rain Light Rain
2:51 AM 39.9 °F 34.5 °F 37.9 °F 93% 30.03 in 10.0 mi NW 8.1 mph 19.6 mph 0.00 in   Overcast
3:39 AM 39.2 °F 31.2 °F 37.4 °F 93% 29.98 in 10.0 mi NW 13.8 mph 20.7 mph N/A   Overcast
3:51 AM 39.9 °F 32.9 °F 37.0 °F 89% 30.02 in 10.0 mi NW 11.5 mph 20.7 mph N/A   Overcast
4:51 AM 39.0 °F 30.6 °F 36.0 °F 89% 30.04 in 10.0 mi NW 15.0 mph 24.2 mph N/A   Overcast
5:15 AM 39.2 °F 30.8 °F 35.6 °F 87% 29.99 in 10.0 mi NW 15.0 mph 26.5 mph N/A   Overcast
5:51 AM 39.0 °F 31.8 °F 36.0 °F 89% 30.04 in 10.0 mi NW 11.5 mph - 0.00 in Rain Light Rain
6:51 AM 39.0 °F 32.3 °F 36.0 °F 89% 30.04 in 10.0 mi NW 10.4 mph 20.7 mph 0.00 in   Overcast
7:13 AM 39.2 °F 33.6 °F 35.6 °F 87% 30.01 in 10.0 mi NW 8.1 mph - N/A   Overcast
7:51 AM 37.9 °F 30.9 °F 34.0 °F 86% 30.06 in 10.0 mi NW 10.4 mph 19.6 mph N/A   Overcast
8:00 AM 37.4 °F 28.2 °F 33.8 °F 87% 30.02 in 10.0 mi NW 16.1 mph 25.3 mph N/A   Overcast
8:32 AM 37.4 °F 30.3 °F 33.8 °F 87% 30.03 in 10.0 mi NW 10.4 mph 20.7 mph N/A   Overcast
8:51 AM 39.0 °F 31.8 °F 35.1 °F 86% 30.07 in 10.0 mi NW 11.5 mph - N/A   Overcast
9:51 AM 39.9 °F 31.8 °F 35.1 °F 83% 30.07 in 10.0 mi NNW 15.0 mph 25.3 mph N/A   Overcast
10:04 AM 39.2 °F 29.8 °F 33.8 °F 81% 30.04 in 10.0 mi NNW 18.4 mph 25.3 mph N/A   Overcast
10:51 AM 41.0 °F 33.9 °F 34.0 °F 76% 30.09 in 10.0 mi NW 12.7 mph 25.3 mph N/A   Overcast
11:25 AM 42.8 °F 35.8 °F 33.8 °F 70% 30.05 in 10.0 mi WNW 13.8 mph 19.6 mph N/A   Overcast
11:36 AM 41.0 °F 33.9 °F 33.8 °F 76% 30.05 in 10.0 mi WNW 12.7 mph 24.2 mph N/A   Overcast
11:51 AM 43.0 °F 36.0 °F 35.1 °F 74% 30.07 in 10.0 mi NW 13.8 mph 19.6 mph N/A   Overcast
12:48 PM 44.6 °F 38.8 °F 32.0 °F 61% 30.03 in 10.0 mi NW 11.5 mph 24.2 mph N/A   Overcast
12:51 PM 44.1 °F 37.7 °F 32.0 °F 63% 30.06 in 10.0 mi WNW 12.7 mph 24.2 mph N/A   Mostly Cloudy
1:51 PM 46.9 °F - 30.9 °F 54% 30.04 in 10.0 mi NNW 16.1 mph 23.0 mph N/A   Scattered Clouds
2:51 PM 46.9 °F - 30.9 °F 54% 30.03 in 10.0 mi NW 11.5 mph 26.5 mph N/A   Mostly Cloudy
3:51 PM 46.0 °F 39.9 °F 30.9 °F 56% 30.04 in 10.0 mi WNW 13.8 mph 20.7 mph N/A   Mostly Cloudy
4:51 PM 50.0 °F - 30.9 °F 48% 30.02 in 10.0 mi WNW 10.4 mph 26.5 mph N/A   Overcast
5:51 PM 46.9 °F - 32.0 °F 56% 30.05 in 10.0 mi WNW 8.1 mph - N/A   Mostly Cloudy
6:51 PM 46.0 °F 41.4 °F 33.1 °F 61% 30.04 in 10.0 mi West 9.2 mph - N/A   Mostly Cloudy
7:51 PM 46.0 °F 41.9 °F 35.1 °F 66% 30.05 in 10.0 mi West 8.1 mph - N/A   Overcast
8:51 PM 45.0 °F 41.2 °F 35.1 °F 68% 30.05 in 10.0 mi West 6.9 mph - N/A   Overcast
9:51 PM 46.0 °F 38.5 °F 34.0 °F 63% 30.06 in 10.0 mi NW 19.6 mph 27.6 mph N/A   Overcast
10:51 PM 43.0 °F 38.8 °F 37.9 °F 82% 30.07 in 10.0 mi NW 6.9 mph - 0.01 in   Overcast
11:51 PM 42.8 °F 41.1 °F 37.4 °F 81% 30.01 in 10.0 mi West 3.5 mph - N/A   Overcast